Overview Statistics Trail Chart Weather Telemetry Raw packets
 

This is the latest recevied weather packets stored in our database for station/object 4S6DRJ-13. If no packets are shown the sender has not sent any weather packets the latest 10 day(s).

<< 249 250 251 252 253 254 255 >>
Time Temp. Humidity Pressure Rain* Wind** Luminosity Snow
1788101008 28.33° C 82% 1010.4 hPa 0 mm 1.34 m/s, 262° 0 W/m² -
1788100946 28.33° C 82% 1010.2 hPa 0 mm 1.34 m/s, 242° 0 W/m² -
1788100894 28.33° C 82% 1010.2 hPa 0 mm 2.24 m/s, 177° 0 W/m² -
1788100825 28.33° C 82% 1010.1 hPa 0 mm 1.34 m/s, 196° 0 W/m² -
1788100763 28.33° C 82% 1010.1 hPa 0 mm 1.34 m/s, 72° 0 W/m² -
1788100702 28.33° C 82% 1010.4 hPa 0 mm 0.89 m/s, 189° 0 W/m² -
1788100641 28.33° C 82% 1010.2 hPa 0 mm 0.89 m/s, 306° 0 W/m² -
1788100581 28.33° C 82% 1010.1 hPa 0 mm 0.89 m/s, 191° 0 W/m² -
1788100519 28.33° C 82% 1010.2 hPa 0 mm 1.34 m/s, 237° 0 W/m² -
1788100458 28.33° C 82% 1010.2 hPa 0 mm 1.79 m/s, 22° 0 W/m² -
1788100398 28.33° C 82% 1010.2 hPa 0 mm 2.68 m/s, 80° 0 W/m² -
1788100337 28.33° C 82% 1010.1 hPa 0 mm 1.34 m/s, 356° 0 W/m² -
1788100276 28.33° C 83% 1010 hPa 0 mm 0.45 m/s, 212° 0 W/m² -
1788100215 28.33° C 82% 1009.8 hPa 0 mm 0.45 m/s, 294° 0 W/m² -
1788100154 28.33° C 82% 1010 hPa 0 mm 1.34 m/s, 212° 0 W/m² -
1788100093 28.33° C 82% 1009.9 hPa 0 mm 0.45 m/s, 226° 0 W/m² -
1788100032 28.33° C 82% 1009.9 hPa 0 mm 0.89 m/s, 314° 0 W/m² -
1788099971 28.33° C 82% 1009.9 hPa 0 mm 1.79 m/s, 287° 0 W/m² -
1788099910 28.33° C 82% 1009.7 hPa 0 mm 2.24 m/s, 210° 0 W/m² -
1788099849 28.33° C 82% 1010 hPa 0 mm 0.45 m/s, 216° 0 W/m² -
1788099788 28.33° C 82% 1009.8 hPa 0 mm 2.68 m/s, 232° 0 W/m² -
1788099727 28.33° C 82% 1009.7 hPa 0 mm 2.24 m/s, 222° 0 W/m² -
1788099666 28.33° C 82% 1009.8 hPa 0 mm 0.89 m/s, 254° 0 W/m² -
1788099605 28.33° C 82% 1009.7 hPa 0 mm 1.34 m/s, 214° 0 W/m² -
1788099544 28.33° C 82% 1009.7 hPa 0 mm 1.34 m/s, 228° 0 W/m² -

* Rain latest hour (hover to see other rain measurements)
** Current wind speed in m/s (hover to see current wind gust speed)